Weather in Yessey

Russia / Krasnoyarsk Krai     68°27′48″N   102°11′14″E
temp.,
°C
wind,
m/s
gust,
m/s
humid.,
%
clouds,
%
prec.,
mm/h
press.,
hPa
HPBL,
m
14 june, mon
mon1401:00+4nnw3668100 0.1 1015399
04:00+4wnw126583 0.0 1015156
07:00+6ssw345399 0.0 1014790
10:00+9sw5644100 0.0 10121098
13:00+12w4535100 0.0 10101542
16:00+8w2374100 0.7 1011305
19:00+10wnw346688 0.8 1011494
22:00+10ssw347065 0.0 101148
15 june, tue
tue1501:00+9sw337664 0.0 101130
04:00+10sw346866 0.0 101091
07:00+16w34509 0.0 1010367
10:00+19wnw344155 0.0 10091383
13:00+21wnw333599 0.0 10092251
16:00+21w122976 0.0 10092566
19:00+21ssw643296 0.0 10081749
22:00+18s224467 0.0 100829
16 june, wed
wed1601:00+15s33537 0.0 100819
04:00+17ssw344976 0.0 100888
07:00+20sw553812 0.0 1008636
10:00+22sw662955 0.0 10082514
13:00+23sw672678 0.0 10072995
16:00+22wsw872822 0.0 10072407
19:00+22sw67287 0.0 10082609
22:00+19wsw484424 0.0 1008214
17 june, thu
thu1701:00+16sw455242 0.0 100958
04:00+16ssw475499 0.0 1009160
07:00+18ssw5748100 0.0 1008309
10:00+20w5543100 0.0 10081126
13:00+23w353699 0.0 10082583
16:00+21wsw463891 0.0 1008288
19:00+23sw663131 0.0 10082138
22:00+19ssw484610 0.0 1009143
18 june, fri
fri1801:00+16ssw475379 0.0 100984
04:00+17s485365 0.0 1009166
07:00+20ssw674111 0.0 1009465
10:00+23ssw773114 0.0 10082542
13:00+24ssw762745 0.0 10082689
16:00+24wsw662787 0.0 10072714
19:00+24sw1428100 0.0 10072341
22:00+20s344023 0.0 100882